This demonstration page uses our WeatherBlox Daily Observations layout. Learn more.

Left ArrowRight Arrow

Hourly Observations for February 5, 2015

Temp ( °F °C ) Dew Point ( °F °C ) Humidity (%) Winds ( mph kmh ) Pressure ( in mb ) Visibility ( mi km ) Precip ( " mm )
12:12 am 00:12 Mostly Clear with Fog 46 8 46 8 100 100 Calm 29.97 1015 1 1 0.00 0.00
12:27 am 00:27 Partly Cloudy with Fog 48 8.9 47 8.3 96 96 Calm 29.97 1015 0 0 0.00 0.00
12:31 am 00:31 Mostly Cloudy with Fog 48 8.9 47 8.3 96 96 SSW 5 7 29.97 1015 1 1 0.00 0.00
12:42 am 00:42 Mostly Cloudy with Fog 46 8 46 8 100 100 Calm 29.97 1015 0 0 0.00 0.00
12:51 am 00:51 Cloudy with Fog 46 8 46 8 100 100 VRB 3 6 29.97 1015 0 0 0.00 0.00
12:53 am 00:53 Cloudy with Fog 47 8.3 46 7.8 97 97 WNW 5 7 29.98 1015 0 0 0.00 0.00
1:03 am 01:03 Cloudy with Fog 48 9 46 8 94 94 Calm 30.00 1016 0 0 0.00 0.00
1:15 am 01:15 Cloudy with Fog 48 8.9 47 8.3 96 96 Calm 30.00 1016 1 1 0.00 0.00
1:26 am 01:26 Cloudy with Fog 48 9 48 9 100 100 N 5 7 30.00 1016 1 1 0.00 0.00
1:53 am 01:53 Cloudy with Fog 48 8.9 47 8.3 96 96 Calm 29.98 1015 1 1 0.00 0.00
2:08 am 02:08 Cloudy with Mist and Fog 48 9 48 9 100 100 W 3 6 30.00 1016 2 2 0.00 0.00
2:14 am 02:14 Cloudy with Mist and Fog 48 9 48 9 100 100 Calm 30.00 1016 3 5 0.00 0.00
2:53 am 02:53 Cloudy with Mist and Fog 49 9.4 48 8.9 97 97 Calm 29.97 1015 5 8 0.00 0.00
3:53 am 03:53 Cloudy with Mist and Fog 51 10.6 49 9.4 92 92 ENE 3 6 29.96 1014 5 8 0.00 0.00
4:53 am 04:53 Cloudy with Mist and Fog 51 10.6 49 9.4 92 92 NNE 3 6 29.95 1014 5 8 0.00 0.00
5:53 am 05:53 Cloudy with Mist and Fog 51 10.6 49 9.4 92 92 Calm 29.96 1014 5 8 0.00 0.00
6:53 am 06:53 Cloudy with Mist and Fog 51 10.6 49 9.4 92 92 ESE 6 9 29.95 1014 4 6 0.00 0.00
7:53 am 07:53 Cloudy with Mist and Fog 52 11.1 50 10 93 93 SSE 3 6 29.96 1015 3 4 0.00 0.00
8:53 am 08:53 Cloudy with Mist and Fog 52 11.1 50 10 93 93 Calm 29.96 1015 3 4 0.00 0.00
9:53 am 09:53 Cloudy with Mist and Fog 54 12.2 50 10 87 87 VRB 5 7 29.97 1015 3 4 0.00 0.00
10:00 am 10:00 Cloudy with Mist and Fog 54 12 50 10 88 88 VRB 3 6 29.97 1015 3 4 0.00 0.00
10:53 am 10:53 Cloudy with Haze 55 12.8 49 9.4 80 80 NNE 5 7 29.98 1015 4 6 0.00 0.00
11:53 am 11:53 Cloudy with Haze 56 13.3 49 9.4 77 77 ENE 5 7 29.97 1015 4 6 0.00 0.00
12:53 pm 12:53 Mostly Cloudy with Haze 57 13.9 49 9.4 74 74 N 5 7 29.94 1014 4 6 0.00 0.00
1:53 pm 13:53 Hazy 57 13.9 49 9.4 74 74 N 7 11 29.91 1013 6 10 0.00 0.00
2:14 pm 14:14 Cloudy with Haze 57 13.9 48 8.9 72 72 N 7 11 29.91 1013 6 10 0.00 0.00
2:53 pm 14:53 Cloudy with Haze 57 13.9 48 8.9 72 72 N 3 6 29.91 1013 6 10 0.00 0.00
3:00 pm 15:00 Mostly Sunny 57 14 48 9 72 72 Calm 29.91 1013 10 16 0.00 0.00
3:53 pm 15:53 Cloudy 56 13.3 49 9.4 77 77 WNW 5 7 29.88 1012 10 16 0.00 0.00
4:53 pm 16:53 Cloudy 56 13.3 49 9.4 77 77 Calm 29.88 1012 8 13 0.00 0.00
5:53 pm 17:53 Mostly Clear 56 13.3 49 9.4 77 77 WNW 5 7 29.88 1012 10 16 0.00 0.00
6:53 pm 18:53 Clear 54 12.2 49 9.4 83 83 ENE 10 17 29.86 1011 10 16 0.00 0.00
7:53 pm 19:53 Clear 53 11.7 49 9.4 86 86 NW 5 7 29.85 1011 10 16 0.00 0.00
8:53 pm 20:53 Partly Cloudy 54 12.2 48 8.9 80 80 NW 3 6 29.85 1011 10 16 0.00 0.00
9:53 pm 21:53 Mostly Clear 53 11.7 48 8.9 83 83 Calm 29.85 1011 10 16 0.00 0.00
10:53 pm 22:53 Cloudy 52 11.1 49 9.4 89 89 Calm 29.89 1012 9 14 0.00 0.00
11:53 pm 23:53 Cloudy 52 11.1 49 9.4 89 89 NNE 5 7 29.89 1012 10 16 0.00 0.00

Powered by AerisWeather